Regional Weather Roundup
Issued by NWS

Home | Current Version | Previous Version | Text Only | Print | Product List | Glossary On
Versions: 1 2 3 4 5 6 7 8 9 10 11 12 13 14 15 16 17 18 19 20 21 22 23 24 25 26 27 28 29 30 31 32 33 34 35 36 37 38 39 40 41 42 43 44 45 46 47 48 49 50
000
ASUS45 KABQ 051401
RWRNM
WEATHER ROUNDUP FOR NEW MEXICO
NATIONAL WEATHER SERVICE ALBUQUERQUE NM
800 AM MDT TUE MAY 05 2015

NOTE: "FAIR" MEANS FEW OR NO CLOUDS BELOW 12,000 FEET AGL WITH NO
       SIGNIFICANT WEATHER OR OBSTRUCTIONS TO VISION.

      THIS PRODUCT IS RELEASED AS TWO VERSIONS.  ONE VERSION NEAR
      THE TOP OF THE HOUR CONTAINING PRELIMINARY DATA FROM ALBUQUERQUE
      AND OTHER STATIONS.  A FINAL VERSION WITH ADDITIONAL DATA IS
      ISSUED ABOUT 10 MINUTES AFTER THE HOUR.

NMZ501-503-504-510>518-051500-
NORTHWEST PLATEAU/NORTHCENTRAL MOUNTAINS

CITY           SKY/WX    TMP DP  RH WIND       PRES   REMARKS
FARMINGTON     LGT RAIN  49  48  97 N3        29.92R
SANTA FE       CLOUDY    48  43  82 VRB3      29.97S
TAOS           CLOUDY    43  34  70 CALM      29.98S

$$
NMZ402-403-502-505>509-051500-
WESTCENTRAL MOUNTAINS/SOUTHWEST MOUNTAINS

CITY           SKY/WX    TMP DP  RH WIND       PRES   REMARKS
GALLUP         CLOUDY    45  42  89 SW9       29.98S
SILVER CITY      N/A     50  39  66 NW8       30.03R

$$
NMZ407-409-411-412-051500-
SOUTHERN DESERTS

CITY           SKY/WX    TMP DP  RH WIND       PRES   REMARKS
DEMING         MOSUNNY   56  42  59 W9        29.99R
HOLLOMAN AFB   SUNNY     54  54 100 S12       29.95R
ALAMOGORDO     CLOUDY    54  54 100 S9        29.96R
T OR C         SUNNY     57  39  51 NW6       29.96R

$$
NMZ519>523-051500-
CENTRAL VALLEYS/CENTRAL HIGHLANDS

CITY           SKY/WX    TMP DP  RH WIND       PRES   REMARKS
ALBUQUERQUE    MOSUNNY   52  47  83 S10       29.96S
DOUBLE EAGLE   MOSUNNY   46  45  93 SW6       29.96S
CLINES CORNERS CLOUDY    46  43  89 CALM      29.97S
BELEN          CLOUDY    51  45  79 SW8       29.97R
SOCORRO        NOT AVBL

$$
NMZ524>526-539-540-051500-
SOUTHCENTRAL MOUNTAINS

CITY           SKY/WX    TMP DP  RH WIND       PRES   REMARKS
RUIDOSO        NOT AVBL

$$
NMZ527>531-051500-
NORTHEAST HIGHLANDS/NORTHEAST PLAINS

CITY           SKY/WX    TMP DP  RH WIND       PRES   REMARKS
LAS VEGAS      CLOUDY    44  41  89 N5        29.98S
RATON          CLOUDY    49  47  93 N6        29.94S
CLAYTON        CLOUDY    53  50  89 SE3       29.93F

$$
NMZ532>537-051500-
EASTCENTRAL PLAINS

CITY           SKY/WX    TMP DP  RH WIND       PRES   REMARKS
TUCUMCARI      CLOUDY    55  53  93 E7        29.86F
CANNON AFB     NOT AVBL
CLOVIS AIRPORT CLOUDY    54  52  94 NE20      29.82F

$$
NMZ028-029-538-051500-
SOUTHEAST PLAINS

CITY           SKY/WX    TMP DP  RH WIND       PRES   REMARKS
ROSWELL        MOSUNNY   59  54  83 SW8       29.89S
ARTESIA        SUNNY     61  61 100 W5        29.92S
CARLSBAD       SUNNY     62  56  80 W7        29.91R
HOBBS          PTSUNNY   55  55 100 CALM      29.94R


$$


USA.gov is the U.S. government's official web portal to all federal, state and local government web resources and services.